period_start,C,m1,H,J0,J1,J2,J3,J4,J5,JA,JB,JC,JD,JJ,JK,JN,#
2014-01-26 00:00:07,0.14,3.57,0.00,19.17,25.29,28.66,6.08,30.83,1019.55,2045.97,2340.38,2437.58,2636.35,349.89,329.05,23.42,0000 0000 0000 0000 000000
2014-01-26 00:01:07,0.37,3.57,0.00,19.17,25.28,28.67,6.13,30.71,1019.55,2045.98,2340.14,2437.22,2636.13,349.65,328.83,23.43,0000 0000 0000 0000 000000
2014-01-26 00:02:07,0.21,3.57,0.00,19.17,25.27,28.68,6.20,30.71,1019.55,2045.96,2339.86,2437.08,2635.91,350.26,329.20,23.43,0000 0000 0000 0000 000000
2014-01-26 00:03:08,0.13,3.57,0.00,19.17,25.28,28.69,6.15,30.88,1019.55,2045.97,2339.38,2436.91,2635.43,351.04,329.99,23.44,0000 0000 0000 0000 000000
2014-01-26 00:04:08,0.30,3.57,0.00,19.16,25.27,28.69,6.03,30.79,1019.55,2045.97,2339.12,2436.43,2635.16,349.86,329.05,23.44,0000 0000 0000 0000 000000
2014-01-26 00:05:08,0.27,3.57,0.00,19.17,25.27,28.70,5.95,30.63,1019.56,2045.96,2338.68,2436.16,2634.93,349.52,328.87,23.45,0000 0000 0000 0000 000000
2014-01-26 00:06:08,0.23,3.57,0.00,19.17,25.27,28.70,6.03,30.92,1019.55,2045.92,2338.24,2436.04,2634.44,349.07,328.60,23.45,0000 0000 0000 0000 000000
2014-01-26 00:07:08,0.19,3.58,0.00,19.17,25.27,28.70,6.25,30.71,1019.56,2045.96,2338.00,2435.76,2634.16,349.86,329.16,23.46,0000 0000 0000 0000 000000
2014-01-26 00:08:09,0.26,3.58,0.00,19.17,25.27,28.68,6.08,30.75,1019.55,2045.97,2337.47,2435.32,2634.05,349.04,328.74,23.47,0000 0000 0000 0000 000000
2014-01-26 00:09:09,0.30,3.58,0.00,19.17,25.27,28.69,6.34,30.96,1019.56,2045.96,2337.17,2435.11,2633.85,350.89,330.24,23.47,0000 0000 0000 0000 000000
2014-01-26 00:10:09,0.16,3.58,0.00,19.17,25.27,28.69,6.07,30.71,1019.57,2045.96,2336.99,2435.03,2633.38,349.39,328.60,23.48,0000 0000 0000 0000 000000
2014-01-26 00:11:09,0.19,3.58,0.00,19.16,25.27,28.69,6.30,30.79,1019.55,2045.98,2336.50,2434.72,2633.14,351.13,330.38,23.48,0000 0000 0000 0000 000000
2014-01-26 00:12:09,0.27,3.58,0.00,19.15,25.27,28.68,6.27,30.50,1019.57,2045.95,2336.17,2434.29,2633.01,350.53,329.56,23.49,0000 0000 0000 0000 000000
2014-01-26 00:13:10,0.20,3.58,0.00,19.14,25.27,28.68,6.08,30.67,1019.55,2045.94,2335.94,2434.10,2632.69,349.46,329.09,23.50,0000 0000 0000 0000 000000
2014-01-26 00:14:10,0.18,3.58,0.00,19.14,25.27,28.67,6.11,30.54,1019.55,2045.96,2335.44,2433.98,2632.27,349.62,328.82,23.50,0000 0000 0000 0000 000000
2014-01-26 00:15:10,0.25,3.59,0.00,19.14,25.27,28.69,6.02,30.63,1019.55,2045.97,2335.16,2433.64,2632.09,349.21,328.44,23.51,0000 0000 0000 0000 000000
2014-01-26 00:16:10,0.23,3.59,0.00,19.14,25.27,28.68,6.18,30.71,1019.55,2045.96,2334.89,2433.26,2631.99,350.29,329.45,23.51,0000 0000 0000 0000 000000
2014-01-26 00:17:11,0.22,3.59,0.00,19.15,25.27,28.68,6.15,30.71,1019.55,2045.97,2334.41,2433.09,2631.54,350.75,329.88,23.52,0000 0000 0000 0000 000000
2014-01-26 00:18:11,0.26,3.59,0.00,19.15,25.27,28.69,6.26,30.63,1019.55,2045.97,2334.14,2432.98,2631.20,350.33,329.50,23.52,0000 0000 0000 0000 000000
2014-01-26 00:19:11,0.16,3.59,0.00,19.14,25.27,28.72,5.97,30.46,1019.55,2045.97,2333.86,2432.57,2631.05,349.60,328.81,23.53,0000 0000 0000 0000 000000
2014-01-26 00:20:11,0.24,3.59,0.00,19.14,25.27,28.69,6.03,30.50,1019.55,2045.97,2333.36,2432.21,2630.63,349.31,328.54,23.54,0000 0000 0000 0000 000000
2014-01-26 00:21:12,0.32,3.59,0.00,19.14,25.27,28.68,6.16,30.50,1019.55,2045.94,2333.11,2432.06,2630.23,350.16,328.77,23.54,0000 0000 0000 0000 000000
2014-01-26 00:22:12,0.15,3.60,0.00,19.14,25.27,28.68,6.08,30.38,1019.55,2045.94,2332.68,2431.88,2630.08,349.62,328.83,23.55,0000 0000 0000 0000 000000
2014-01-26 00:23:12,0.19,3.60,0.00,19.14,25.27,28.67,6.01,30.50,1019.55,2045.96,2332.26,2431.43,2629.80,349.55,328.76,23.55,0000 0000 0000 0000 000000
2014-01-26 00:24:12,0.32,3.60,0.00,19.14,25.27,28.68,6.06,30.50,1019.57,2045.95,2332.05,2431.16,2629.32,349.38,328.61,23.56,0000 0000 0000 0000 000000
2014-01-26 00:25:13,0.23,3.60,0.00,19.14,25.27,28.69,6.25,30.67,1019.56,2045.95,2331.62,2431.05,2629.11,349.65,328.87,23.57,0000 0000 0000 0000 000000
2014-01-26 00:26:13,0.19,3.60,0.00,19.14,25.27,28.69,6.13,30.63,1019.55,2045.94,2331.23,2430.87,2629.02,349.56,328.77,23.57,0000 0000 0000 0000 000000
2014-01-26 00:27:13,0.17,3.60,0.00,19.14,25.27,28.67,6.15,30.50,1019.55,2045.94,2331.06,2430.41,2628.61,350.32,329.49,23.58,0000 0000 0000 0000 000000
2014-01-26 00:28:13,0.29,3.60,0.00,19.14,25.27,28.67,6.11,30.63,1019.55,2045.96,2330.60,2430.15,2628.22,349.36,328.58,23.58,0000 0000 0000 0000 000000
2014-01-26 00:29:14,0.27,3.61,0.00,19.14,25.27,28.68,6.22,30.46,1019.55,2045.98,2330.23,2430.02,2628.07,349.43,328.66,23.59,0000 0000 0000 0000 000000
2014-01-26 00:30:14,0.17,3.61,0.00,19.14,25.27,28.67,6.41,30.67,1019.55,2045.98,2330.05,2429.78,2627.80,351.01,330.05,23.60,0000 0000 0000 0000 000000
2014-01-26 00:31:14,0.17,3.61,0.00,19.14,25.26,28.68,6.00,30.50,1019.55,2045.99,2329.66,2429.35,2627.36,349.77,329.08,23.60,0000 0000 0000 0000 000000
2014-01-26 00:32:15,0.34,3.61,0.00,19.13,25.26,28.65,6.12,30.58,1019.55,2045.98,2329.25,2429.12,2627.13,349.79,329.26,23.61,0000 0000 0000 0000 000000
2014-01-26 00:33:15,0.20,3.61,0.00,19.13,25.25,28.67,6.16,30.54,1019.55,2045.97,2329.03,2428.95,2626.87,349.80,329.01,23.61,0000 0000 0000 0000 000000
2014-01-26 00:34:15,0.15,3.61,0.00,19.13,25.26,28.67,6.36,30.63,1019.55,2045.98,2328.51,2428.50,2626.38,350.55,329.72,23.62,0000 0000 0000 0000 000000
2014-01-26 00:35:15,0.39,3.61,0.00,19.14,25.25,28.66,6.36,30.79,1019.55,2045.98,2328.19,2428.19,2626.14,350.55,329.71,23.62,0000 0000 0000 0000 000000
2014-01-26 00:36:15,0.20,3.62,0.00,19.14,25.25,28.66,6.13,30.75,1019.55,2045.98,2328.02,2428.07,2626.04,349.58,328.80,23.63,0000 0000 0000 0000 000000
2014-01-26 00:37:16,0.11,3.62,0.00,19.14,25.25,28.66,6.09,30.88,1019.55,2045.97,2327.59,2427.97,2625.88,350.29,329.46,23.64,0000 0000 0000 0000 000000
2014-01-26 00:38:16,0.20,3.62,0.00,19.14,25.25,28.66,6.23,30.83,1019.55,2045.98,2327.22,2427.60,2625.42,350.41,329.57,23.64,0000 0000 0000 0000 000000
2014-01-26 00:39:16,0.29,3.62,0.00,19.14,25.25,28.66,6.30,30.83,1019.55,2045.99,2327.03,2427.23,2625.15,350.92,329.85,23.65,0000 0000 0000 0000 000000
2014-01-26 00:40:17,0.23,3.62,0.00,19.14,25.25,28.68,6.18,30.67,1019.55,2045.99,2326.55,2427.08,2625.01,350.01,329.14,23.65,0000 0000 0000 0000 000000
2014-01-26 00:41:17,0.21,3.62,0.00,19.14,25.25,28.69,6.16,30.71,1019.55,2045.99,2326.19,2426.91,2624.52,349.87,329.06,23.66,0000 0000 0000 0000 000000
2014-01-26 00:42:17,0.24,3.62,0.00,19.14,25.25,28.67,6.17,30.42,1019.55,2045.98,2326.01,2426.45,2624.19,349.93,329.12,23.67,0000 0000 0000 0000 000000
2014-01-26 00:43:17,0.26,3.62,0.00,19.14,25.25,28.67,5.89,30.50,1019.55,2045.99,2325.55,2426.16,2624.06,349.23,328.08,23.67,0000 0000 0000 0000 000000
2014-01-26 00:44:18,0.22,3.63,0.00,19.13,25.25,28.67,5.95,30.54,1019.55,2045.98,2325.20,2426.05,2623.67,349.30,328.97,23.68,0000 0000 0000 0000 000000
2014-01-26 00:45:18,0.18,3.63,0.00,19.14,25.25,28.68,6.09,30.54,1019.55,2045.98,2325.04,2425.88,2623.28,349.78,328.65,23.68,0000 0000 0000 0000 000000
2014-01-26 00:46:18,0.20,3.63,0.00,19.12,25.25,28.68,6.14,30.63,1019.56,2045.95,2324.56,2425.43,2623.10,349.74,328.95,23.69,0000 0000 0000 0000 000000
2014-01-26 00:47:18,0.27,3.63,0.00,19.12,25.25,28.68,6.18,30.63,1019.56,2045.96,2324.20,2425.15,2623.02,350.84,330.01,23.69,0000 0000 0000 0000 000000
2014-01-26 00:48:19,0.17,3.63,0.00,19.12,25.25,28.69,6.18,30.88,1019.56,2045.94,2323.99,2425.03,2622.82,348.74,328.49,23.70,0000 0000 0000 0000 000000
2014-01-26 00:49:19,0.15,3.63,0.00,19.12,25.25,28.69,6.42,30.63,1019.56,2045.96,2323.47,2424.80,2622.34,350.91,330.28,23.71,0000 0000 0000 0000 000000
2014-01-26 00:50:19,0.30,3.63,0.00,19.12,25.25,28.67,6.31,30.50,1019.58,2045.96,2323.17,2424.37,2622.12,350.88,330.24,23.71,0000 0000 0000 0000 000000
2014-01-26 00:51:19,0.24,3.63,0.00,19.12,25.25,28.71,6.29,30.75,1019.60,2045.97,2322.94,2424.13,2622.04,350.32,329.76,23.72,0000 0000 0000 0000 000000
2014-01-26 00:52:20,0.17,3.64,0.00,19.12,25.25,28.67,6.13,30.63,1019.56,2045.98,2322.40,2424.04,2621.78,350.09,329.03,23.72,0000 0000 0000 0000 000000
2014-01-26 00:53:20,0.22,3.64,0.00,19.12,25.25,28.66,6.32,30.71,1019.58,2045.98,2322.14,2423.80,2621.33,349.91,329.13,23.73,0000 0000 0000 0000 000000
2014-01-26 00:54:20,0.23,3.64,0.00,19.14,25.25,28.68,6.09,30.38,1019.60,2045.99,2321.83,2423.37,2621.12,350.11,329.31,23.74,0000 0000 0000 0000 000000
2014-01-26 00:55:20,0.27,3.64,0.00,19.14,25.25,28.67,6.12,30.67,1019.68,2045.98,2321.33,2423.13,2621.02,349.63,329.19,23.74,0000 0000 0000 0000 000000
2014-01-26 00:56:21,0.22,3.64,0.00,19.13,25.25,28.68,6.07,30.75,1019.75,2045.98,2321.11,2423.03,2620.72,349.68,328.97,23.75,0000 0000 0000 0000 000000
2014-01-26 00:57:21,0.14,3.64,0.00,19.13,25.25,28.68,6.23,30.88,1019.74,2045.99,2320.84,2422.72,2620.28,349.97,329.24,23.75,0000 0000 0000 0000 000000
2014-01-26 00:58:21,0.26,3.64,0.00,19.11,25.24,28.66,5.98,30.83,1019.69,2045.98,2320.35,2422.28,2620.09,348.86,328.33,23.76,0000 0000 0000 0000 000000
2014-01-26 00:59:22,0.29,3.65,0.00,19.09,25.24,28.65,6.19,30.79,1019.66,2045.99,2320.13,2422.10,2619.90,350.46,329.26,23.77,0000 0000 0000 0000 000000
2014-01-26 01:00:22,0.17,3.65,0.00,19.09,25.24,28.65,6.22,30.71,1019.64,2045.99,2319.88,2422.01,2619.43,350.73,329.45,23.77,0000 0000 0000 0000 000000
2014-01-26 01:01:22,0.19,3.65,0.00,19.09,25.24,28.67,6.27,30.67,1019.64,2045.99,2319.43,2421.69,2619.16,350.39,329.64,23.78,0000 0000 0000 0000 000000
2014-01-26 01:02:22,0.26,3.65,0.00,19.09,25.24,28.67,6.38,30.58,1019.65,2045.98,2319.15,2421.26,2618.94,350.75,329.98,23.78,0000 0000 0000 0000 000000
2014-01-26 01:03:23,0.26,3.65,0.00,19.09,25.24,28.66,5.97,30.58,1019.59,2045.99,2318.96,2421.09,2618.46,349.57,329.32,23.79,0000 0000 0000 0000 000000
2014-01-26 01:04:23,0.20,3.65,0.00,19.10,25.24,28.67,6.23,30.63,1019.65,2045.99,2318.43,2421.01,2618.17,350.29,329.55,23.79,0000 0000 0000 0000 000000
2014-01-26 01:05:23,0.22,3.65,0.00,19.09,25.24,28.68,6.31,30.63,1019.61,2045.99,2318.18,2420.59,2618.06,350.68,329.90,23.80,0000 0000 0000 0000 000000
2014-01-26 01:06:23,0.21,3.65,0.00,19.09,25.23,28.68,6.08,30.42,1019.66,2045.98,2317.97,2420.25,2617.77,350.43,329.68,23.81,0000 0000 0000 0000 000000
2014-01-26 01:07:24,0.23,3.66,0.00,19.09,25.23,28.68,6.32,30.71,1019.63,2045.99,2317.45,2420.08,2617.32,350.22,329.36,23.81,0000 0000 0000 0000 000000
2014-01-26 01:08:24,0.25,3.66,0.00,19.09,25.23,28.68,6.18,30.67,1019.65,2045.98,2317.16,2419.91,2617.11,350.32,329.63,23.82,0000 0000 0000 0000 000000
2014-01-26 01:09:24,0.17,3.66,0.00,19.09,25.23,28.68,6.16,30.58,1019.69,2045.97,2316.93,2419.45,2616.97,349.74,329.05,23.82,0000 0000 0000 0000 000000
2014-01-26 01:10:25,0.24,3.66,0.00,19.09,25.22,28.67,6.06,30.58,1019.81,2045.97,2316.49,2419.17,2616.54,350.56,329.85,23.83,0000 0000 0000 0000 000000
2014-01-26 01:11:25,0.26,3.66,0.00,19.09,25.22,28.66,6.17,30.63,1019.82,2045.97,2316.17,2419.06,2616.19,350.76,330.05,23.84,0000 0000 0000 0000 000000
2014-01-26 01:12:25,0.16,3.66,0.00,19.09,25.22,28.68,6.25,30.75,1019.78,2045.99,2316.05,2418.87,2616.03,350.53,329.83,23.84,0000 0000 0000 0000 000000
2014-01-26 01:13:26,0.20,3.66,0.00,19.08,25.22,28.66,6.02,30.92,1019.60,2045.99,2315.58,2418.39,2615.69,349.79,329.46,23.85,0000 0000 0000 0000 000000
2014-01-26 01:14:26,0.31,3.67,0.00,19.09,25.22,28.65,6.10,30.83,1019.58,2045.97,2315.21,2418.14,2615.26,350.29,329.53,23.85,0000 0000 0000 0000 000000
2014-01-26 01:15:26,0.23,3.67,0.00,19.09,25.22,28.61,6.22,30.88,1019.59,2045.98,2315.04,2418.04,2615.09,350.66,329.88,23.86,0000 0000 0000 0000 000000
2014-01-26 01:16:27,0.12,3.67,0.00,19.08,25.22,28.66,6.04,30.67,1019.58,2045.99,2314.57,2417.86,2614.94,350.06,329.80,23.86,0000 0000 0000 0000 000000
2014-01-26 01:17:27,0.26,3.67,0.00,19.09,25.22,28.65,6.27,30.75,1019.61,2045.98,2314.20,2417.37,2614.42,351.14,330.34,23.87,0000 0000 0000 0000 000000
2014-01-26 01:18:27,0.30,3.67,0.00,19.09,25.22,28.64,5.94,30.75,1019.56,2045.99,2314.04,2417.13,2614.16,349.08,328.39,23.88,0000 0000 0000 0000 000000
2014-01-26 01:19:27,0.18,3.67,0.00,19.08,25.22,28.65,6.16,31.04,1019.57,2045.99,2313.59,2417.03,2614.03,350.12,329.37,23.88,0000 0000 0000 0000 000000
2014-01-26 01:20:28,0.17,3.67,0.00,19.07,25.22,28.66,6.16,30.88,1019.57,2045.99,2313.22,2416.76,2613.60,350.65,329.26,23.89,0000 0000 0000 0000 000000
2014-01-26 01:21:28,0.26,3.68,0.00,19.07,25.22,28.66,6.19,30.54,1019.56,2045.99,2313.05,2416.33,2613.22,349.87,329.22,23.89,0000 0000 0000 0000 000000
2014-01-26 01:22:28,0.25,3.68,0.00,19.06,25.22,28.65,6.26,30.83,1019.58,2045.99,2312.64,2416.12,2613.08,350.73,330.13,23.90,0000 0000 0000 0000 000000
2014-01-26 01:23:29,0.18,3.68,0.00,19.05,25.22,28.65,6.26,30.79,1019.56,2045.98,2312.23,2416.04,2612.93,350.01,329.27,23.91,0000 0000 0000 0000 000000
2014-01-26 01:24:29,0.17,3.68,0.00,19.05,25.22,28.66,6.06,30.75,1019.57,2045.99,2312.07,2415.82,2612.46,349.16,328.65,23.91,0000 0000 0000 0000 000000
2014-01-26 01:25:29,0.23,3.68,0.00,19.05,25.22,28.66,6.19,30.92,1019.56,2045.99,2311.67,2415.34,2612.19,350.36,329.46,23.92,0000 0000 0000 0000 000000
2014-01-26 01:26:30,0.28,3.68,0.00,19.05,25.22,28.66,6.03,30.63,1019.57,2045.99,2311.25,2415.13,2612.06,350.07,329.37,23.92,0000 0000 0000 0000 000000
2014-01-26 01:27:30,0.18,3.68,0.00,19.06,25.22,28.65,6.18,30.38,1019.57,2045.98,2311.07,2415.03,2611.92,350.51,329.77,23.93,0000 0000 0000 0000 000000
2014-01-26 01:28:30,0.13,3.68,0.00,19.06,25.22,28.64,6.39,30.75,1019.58,2045.99,2310.80,2414.73,2611.42,350.36,329.63,23.94,0000 0000 0000 0000 000000
2014-01-26 01:29:30,0.27,3.69,0.00,19.06,25.22,28.63,6.03,30.83,1019.57,2045.99,2310.32,2414.30,2611.15,349.66,328.97,23.94,0000 0000 0000 0000 000000
2014-01-26 01:30:31,0.29,3.69,0.00,19.07,25.22,28.64,6.36,30.83,1019.56,2045.98,2310.07,2414.11,2611.02,350.34,329.60,23.95,0000 0000 0000 0000 000000
2014-01-26 01:31:31,0.17,3.69,0.00,19.07,25.21,28.66,6.13,30.83,1019.60,2045.99,2309.63,2414.02,2610.71,350.20,329.48,23.95,0000 0000 0000 0000 000000
2014-01-26 01:32:31,0.20,3.69,0.00,19.07,25.21,28.64,6.10,30.88,1019.57,2045.98,2309.24,2413.78,2610.28,350.01,329.29,23.96,0000 0000 0000 0000 000000
2014-01-26 01:33:32,0.26,3.69,0.00,19.06,25.20,28.63,6.17,30.71,1019.59,2045.98,2309.04,2413.32,2610.09,349.30,328.63,23.96,0000 0000 0000 0000 000000
2014-01-26 01:34:32,0.23,3.69,0.00,19.05,25.20,28.64,6.13,30.67,1019.63,2045.99,2308.58,2413.11,2609.90,349.88,329.21,23.97,0000 0000 0000 0000 000000
2014-01-26 01:35:32,0.22,3.69,0.00,19.04,25.20,28.65,6.21,30.88,1019.63,2045.99,2308.21,2413.01,2609.45,349.71,329.05,23.98,0000 0000 0000 0000 000000
2014-01-26 01:36:32,0.21,3.69,0.00,19.04,25.20,28.61,6.18,30.83,1019.62,2045.99,2308.03,2412.69,2609.17,350.75,330.03,23.98,0000 0000 0000 0000 000000
2014-01-26 01:37:33,0.23,3.70,0.00,19.04,25.20,28.59,6.14,30.71,1019.62,2045.99,2307.58,2412.30,2609.05,350.04,329.35,23.99,0000 0000 0000 0000 000000
2014-01-26 01:38:33,0.25,3.70,0.00,19.05,25.20,28.60,6.38,30.88,1019.65,2045.99,2307.21,2412.10,2608.82,350.97,330.13,23.99,0000 0000 0000 0000 000000
2014-01-26 01:39:33,0.21,3.70,0.00,19.04,25.20,28.60,6.22,30.88,1019.62,2045.99,2307.01,2411.98,2608.40,350.04,329.36,24.00,0000 0000 0000 0000 000000
2014-01-26 01:40:33,0.18,3.70,0.00,19.04,25.20,28.63,6.14,30.92,1019.60,2045.99,2306.56,2411.67,2608.15,350.09,329.70,24.01,0000 0000 0000 0000 000000
2014-01-26 01:41:34,0.25,3.70,0.00,19.04,25.20,28.63,6.27,30.75,1019.59,2045.99,2306.20,2411.26,2608.05,350.62,329.89,24.01,0000 0000 0000 0000 000000
2014-01-26 01:42:34,0.23,3.70,0.00,19.04,25.20,28.63,6.29,30.92,1019.58,2045.99,2306.07,2411.09,2607.79,350.50,329.79,24.02,0000 0000 0000 0000 000000
2014-01-26 01:43:34,0.16,3.70,0.00,19.04,25.20,28.62,6.19,30.92,1019.57,2045.99,2305.61,2410.99,2607.35,350.60,329.88,24.02,0000 0000 0000 0000 000000
2014-01-26 01:44:34,0.22,3.71,0.00,19.04,25.20,28.62,6.17,30.79,1019.61,2045.99,2305.23,2410.61,2607.13,349.80,328.94,24.03,0000 0000 0000 0000 000000
2014-01-26 01:45:34,0.26,3.71,0.00,19.04,25.20,28.63,6.21,30.96,1019.61,2045.99,2305.06,2410.24,2606.99,349.71,329.29,24.03,0000 0000 0000 0000 000000
2014-01-26 01:46:35,0.20,3.71,0.00,19.04,25.20,28.62,6.34,30.83,1019.63,2045.99,2304.62,2410.08,2606.64,350.53,329.83,24.04,0000 0000 0000 0000 000000
2014-01-26 01:47:35,0.21,3.71,0.00,19.02,25.20,28.62,6.38,31.00,1019.65,2045.99,2304.23,2409.90,2606.24,349.50,328.89,24.05,0000 0000 0000 0000 000000
2014-01-26 01:48:36,0.25,3.71,0.00,19.02,25.19,28.59,6.07,30.96,1019.63,2045.99,2304.03,2409.45,2606.08,351.11,330.39,24.05,0000 0000 0000 0000 000000
2014-01-26 01:49:36,0.23,3.71,0.00,19.03,25.19,28.59,6.20,30.79,1019.62,2045.99,2303.59,2409.17,2605.90,350.65,329.95,24.06,0000 0000 0000 0000 000000
2014-01-26 01:50:36,0.25,3.71,0.00,19.03,25.19,28.59,6.13,30.75,1019.58,2045.99,2303.22,2409.06,2605.44,350.58,329.87,24.06,0000 0000 0000 0000 000000
2014-01-26 01:51:36,0.19,3.71,0.00,19.02,25.19,28.61,6.04,30.71,1019.63,2045.99,2303.07,2408.96,2605.16,349.32,328.71,24.07,0000 0000 0000 0000 000000
2014-01-26 01:52:37,0.14,3.72,0.00,19.02,25.19,28.62,6.26,30.88,1019.62,2045.99,2302.74,2408.52,2605.01,350.01,329.36,24.08,0000 0000 0000 0000 000000
2014-01-26 01:53:37,0.28,3.72,0.00,19.03,25.18,28.59,6.20,30.88,1019.63,2045.99,2302.29,2408.20,2604.68,349.80,329.15,24.08,0000 0000 0000 0000 000000
2014-01-26 01:54:37,0.27,3.72,0.00,19.02,25.18,28.60,6.17,30.83,1019.74,2045.99,2302.10,2408.07,2604.27,350.07,329.32,24.09,0000 0000 0000 0000 000000
2014-01-26 01:55:37,0.15,3.72,0.00,19.02,25.18,28.63,6.31,30.75,1019.78,2045.99,2301.94,2407.99,2604.09,350.79,330.15,24.09,0000 0000 0000 0000 000000
2014-01-26 01:56:38,0.13,3.72,0.00,19.02,25.17,28.62,6.29,30.71,1019.85,2045.99,2301.48,2407.63,2603.98,350.43,329.82,24.10,0000 0000 0000 0000 000000
2014-01-26 01:57:38,0.27,3.72,0.00,19.02,25.17,28.58,6.25,30.67,1019.85,2045.99,2301.17,2407.23,2603.55,350.31,329.41,24.11,0000 0000 0000 0000 000000
2014-01-26 01:58:38,0.26,3.72,0.00,19.01,25.17,28.60,6.11,30.50,1019.83,2045.99,2300.84,2407.08,2603.21,349.57,328.79,24.11,0000 0000 0000 0000 000000
2014-01-26 01:59:39,0.21,3.73,0.00,19.01,25.17,28.61,6.33,30.54,1019.79,2045.99,2300.33,2406.86,2603.05,350.07,329.29,24.12,0000 0000 0000 0000 000000
2014-01-26 02:00:39,0.26,3.73,0.00,19.00,25.17,28.62,6.06,30.50,1019.83,2045.99,2300.11,2406.37,2602.65,349.48,328.94,24.12,0000 0000 0000 0000 000000
2014-01-26 02:01:39,0.27,3.73,0.00,19.00,25.17,28.61,6.29,30.63,1019.86,2045.99,2299.89,2406.14,2602.25,350.77,330.40,24.13,0000 0000 0000 0000 000000
2014-01-26 02:02:39,0.23,3.73,0.00,19.01,25.17,28.59,6.44,30.75,1019.90,2045.99,2299.41,2406.02,2602.08,351.29,329.93,24.13,0000 0000 0000 0000 000000
2014-01-26 02:03:40,0.18,3.73,0.00,19.02,25.17,28.59,6.06,30.79,1019.95,2045.99,2299.14,2405.75,2601.91,350.01,329.64,24.14,0000 0000 0000 0000 000000
2014-01-26 02:04:40,0.23,3.73,0.00,19.02,25.17,28.60,6.12,30.38,1019.91,2045.99,2298.90,2405.31,2601.38,349.75,329.21,24.15,0000 0000 0000 0000 000000
2014-01-26 02:05:40,0.29,3.73,0.00,19.02,25.17,28.60,6.32,30.50,1019.88,2045.99,2298.36,2405.11,2601.13,350.73,330.13,24.15,0000 0000 0000 0000 000000
2014-01-26 02:06:40,0.21,3.74,0.00,19.01,25.17,28.59,6.09,30.46,1019.79,2045.99,2298.13,2405.01,2601.02,349.60,329.04,24.16,0000 0000 0000 0000 000000
2014-01-26 02:07:41,0.12,3.74,0.00,18.99,25.17,28.61,6.10,30.38,1019.69,2045.99,2297.86,2404.74,2600.65,350.57,329.94,24.16,0000 0000 0000 0000 000000
2014-01-26 02:08:41,0.28,3.74,0.00,19.00,25.17,28.58,5.94,30.33,1019.72,2045.99,2297.35,2404.30,2600.25,349.31,328.76,24.17,0000 0000 0000 0000 000000
2014-01-26 02:09:41,0.30,3.74,0.00,19.01,25.17,28.57,6.07,30.38,1019.81,2045.99,2297.12,2404.11,2600.09,349.34,328.80,24.18,0000 0000 0000 0000 000000
2014-01-26 02:10:42,0.15,3.74,0.00,19.02,25.17,28.58,6.05,30.46,1019.76,2045.99,2296.93,2404.00,2599.99,349.89,329.29,24.18,0000 0000 0000 0000 000000
2014-01-26 02:11:42,0.13,3.74,0.00,19.02,25.17,28.59,6.27,30.71,1019.74,2045.99,2296.45,2403.72,2599.52,350.67,330.03,24.19,0000 0000 0000 0000 000000
2014-01-26 02:12:42,0.30,3.74,0.00,19.00,25.17,28.61,6.05,30.42,1019.67,2045.99,2296.16,2403.32,2599.19,349.46,328.88,24.19,0000 0000 0000 0000 000000
2014-01-26 02:13:42,0.25,3.74,0.00,19.00,25.17,28.56,6.17,30.46,1019.66,2045.99,2296.05,2403.13,2599.07,349.98,329.37,24.20,0000 0000 0000 0000 000000
2014-01-26 02:14:43,0.11,3.74,0.00,18.99,25.17,28.59,6.12,30.33,1019.65,2045.99,2295.88,2403.03,2598.80,350.66,330.10,24.20,0000 0000 0000 0000 000000
2014-01-26 02:15:43,0.16,3.75,0.00,18.99,25.17,28.59,6.15,30.46,1019.67,2045.99,2295.38,2402.83,2598.37,349.73,329.28,24.21,0000 0000 0000 0000 000000
2014-01-26 02:16:43,0.27,3.75,0.00,18.97,25.17,28.58,6.11,30.46,1019.62,2045.99,2295.13,2402.41,2598.14,349.62,329.05,24.22,0000 0000 0000 0000 000000
2014-01-26 02:17:43,0.23,3.75,0.00,18.98,25.17,28.57,6.09,30.50,1019.66,2045.99,2294.69,2402.15,2598.04,349.24,328.84,24.22,0000 0000 0000 0000 000000
2014-01-26 02:18:43,0.21,3.75,0.00,18.99,25.17,28.57,6.18,30.29,1019.64,2045.99,2294.26,2402.03,2597.69,349.71,329.32,24.23,0000 0000 0000 0000 000000
2014-01-26 02:19:44,0.22,3.75,0.00,18.99,25.16,28.59,6.24,30.42,1019.57,2045.99,2294.08,2401.67,2597.26,349.71,329.09,24.23,0000 0000 0000 0000 000000
2014-01-26 02:20:44,0.25,3.75,0.00,18.99,25.16,28.57,6.29,30.50,1019.58,2045.99,2293.71,2401.29,2597.09,351.02,330.33,24.24,0000 0000 0000 0000 000000
2014-01-26 02:21:44,0.25,3.75,0.00,18.99,25.16,28.56,6.16,30.29,1019.60,2045.99,2293.29,2401.10,2596.98,350.32,329.61,24.25,0000 0000 0000 0000 000000
2014-01-26 02:22:44,0.18,3.76,0.00,18.99,25.15,28.56,6.12,30.33,1019.59,2045.99,2293.10,2401.03,2596.53,350.19,329.68,24.25,0000 0000 0000 0000 000000
2014-01-26 02:23:45,0.16,3.76,0.00,18.99,25.15,28.55,6.21,30.38,1019.61,2045.99,2292.80,2400.73,2596.19,349.33,328.75,24.26,0000 0000 0000 0000 000000
2014-01-26 02:24:45,0.27,3.76,0.00,18.99,25.15,28.53,6.09,30.38,1019.59,2045.99,2292.32,2400.30,2596.07,349.88,329.26,24.26,0000 0000 0000 0000 000000
2014-01-26 02:25:45,0.26,3.76,0.00,18.99,25.15,28.54,6.18,30.38,1019.57,2045.99,2292.11,2400.11,2595.86,350.66,329.99,24.27,0000 0000 0000 0000 000000
2014-01-26 02:26:45,0.16,3.76,0.00,18.99,25.15,28.55,6.16,30.38,1019.60,2045.99,2291.80,2400.04,2595.39,350.10,329.47,24.28,0000 0000 0000 0000 000000
2014-01-26 02:27:45,0.21,3.76,0.00,18.99,25.15,28.56,6.22,30.42,1019.62,2045.99,2291.32,2399.90,2595.14,349.62,329.02,24.28,0000 0000 0000 0000 000000
2014-01-26 02:28:46,0.21,3.76,0.00,18.99,25.15,28.55,6.11,30.38,1019.62,2045.99,2291.10,2399.46,2595.03,350.44,329.79,24.29,0000 0000 0000 0000 000000
2014-01-26 02:29:46,0.23,3.76,0.00,18.99,25.15,28.55,6.14,30.63,1019.63,2045.99,2290.94,2399.16,2594.74,350.02,329.40,24.29,0000 0000 0000 0000 000000
2014-01-26 02:30:46,0.21,3.77,0.00,18.99,25.15,28.55,6.23,30.54,1019.63,2045.99,2290.46,2399.04,2594.30,350.61,329.96,24.30,0000 0000 0000 0000 000000
2014-01-26 02:31:46,0.23,3.77,0.00,19.00,25.15,28.57,6.02,30.63,1019.61,2045.99,2290.17,2398.70,2594.11,349.55,328.81,24.30,0000 0000 0000 0000 000000
2014-01-26 02:32:46,0.24,3.77,0.00,18.99,25.15,28.57,6.07,30.75,1019.62,2045.99,2289.96,2398.28,2593.96,349.62,328.87,24.31,0000 0000 0000 0000 000000
2014-01-26 02:33:47,0.22,3.77,0.00,18.99,25.15,28.58,6.14,30.75,1019.66,2045.99,2289.44,2398.10,2593.53,349.71,329.12,24.32,0000 0000 0000 0000 000000
2014-01-26 02:34:47,0.26,3.77,0.00,19.00,25.15,28.56,6.39,30.88,1019.73,2045.99,2289.15,2398.01,2593.20,351.17,330.50,24.32,0000 0000 0000 0000 000000
2014-01-26 02:35:47,0.14,3.77,0.00,19.00,25.15,28.54,6.18,30.88,1019.81,2045.99,2288.96,2397.66,2593.07,350.12,329.55,24.33,0000 0000 0000 0000 000000